Weather History for CWZA - October, 2012

Change the Weather History Date:

Friday, October 26, 2012

  Actual Average Record
Temperature  
Mean Temperature 44 °F -  
Max Temperature 46 °F - - ()
Min Temperature 43 °F - - ()
Degree Days  
Heating Degree Days 20    
Moisture  
Dew Point 40 °F    
Average Humidity 82    
Maximum Humidity 96    
Minimum Humidity 75    
Precipitation  
Precipitation 0.06 in - - ()
Sea Level Pressure  
Sea Level Pressure 30.20 in    
Wind  
Wind Speed 5 mph ()    
Max Wind Speed 10 mph    
Max Gust Speed -    
T = Trace of Precipitation, MM = Missing Value Source: Averaged Metar Reports

Daily Weather History Graph

Daily Weather History Graph

Search for Another Location

Airport or City:

Trip Planner

Search our weather history database for the weather conditions in past years. The results will help you decide how hot, cold, wet, or windy it might be!

Date:

Astronomy

Oct. 26, 2012 Rise Set
Actual Time 7:46 AM PDT 5:54 PM PDT
Civil Twilight 7:13 AM PDT 6:27 PM PDT
Nautical Twilight 6:36 AM PDT 7:04 PM PDT
Astronomical Twilight 5:59 AM PDT 7:41 PM PDT
Moon 4:23 PM PDT (10/26) 4:34 AM PDT (10/26)
Length of Visible Light 11h 14m
Length of Day
10h 08m
Waxing Gibbous, 91% of the Moon is Illuminated
Oct 26
Waxing Gibbous
Oct 29
Full
Nov 6
Last Quarter
Nov 13
New
Nov 20
First Quarter

Hourly Weather History & Observations

Time (PDT) Temp. Windchill Dew Point Humidity Pressure Visibility Wind Dir Wind Speed Gust Speed Precip Events Conditions
12:00 AM 44.2 °F - 38.1 °F 79% 30.37 in - South 2.3 mph - N/A   Unknown
1:00 AM 43.9 °F 39.3 °F 37.9 °F 80% 30.36 in - NE 8.1 mph - N/A   Unknown
2:00 AM 44.1 °F 39.5 °F 37.6 °F 78% 30.35 in - NE 8.1 mph - N/A   Unknown
3:00 AM 43.9 °F 38.3 °F 37.6 °F 78% 30.34 in - NE 10.4 mph - N/A   Unknown
4:00 AM 44.4 °F 40.0 °F 37.2 °F 76% 30.30 in - NNE 8.1 mph - N/A   Unknown
5:00 AM 45.0 °F 40.1 °F 37.4 °F 75% 30.30 in - NE 9.2 mph - N/A   Unknown
6:00 AM 44.1 °F 38.6 °F 37.6 °F 78% 30.28 in - NE 10.4 mph - N/A   Unknown
7:00 AM 43.5 °F 37.9 °F 38.5 °F 82% 30.25 in - NE 10.4 mph - N/A   Unknown
8:00 AM 44.4 °F 40.5 °F 38.3 °F 79% 30.23 in - NE 6.9 mph - N/A   Unknown
9:00 AM 44.8 °F 41.6 °F 37.8 °F 76% 30.23 in - NNE 5.8 mph - N/A   Unknown
10:00 AM 44.1 °F 40.8 °F 38.3 °F 80% 30.24 in - ENE 5.8 mph - N/A   Unknown
11:00 AM 44 °F - 39 °F 78% 30.24 in - NE 5.8 mph - -  
11:00 AM 43.5 °F 40.1 °F 39.4 °F 85% 30.24 in - NE 5.8 mph - N/A   Unknown
12:00 PM 44.2 °F 42.7 °F 40.8 °F 88% 30.21 in - NNE 3.5 mph - N/A   Unknown
1:00 PM 45.5 °F 44.2 °F 41.4 °F 85% 30.19 in - ENE 3.5 mph - N/A   Unknown
2:00 PM 46.8 °F - 40.5 °F 79% 30.16 in - ENE 2.3 mph - N/A   Unknown
3:00 PM 46.2 °F - 40.5 °F 80% 30.14 in - North 2.3 mph - N/A   Unknown
4:00 PM 46.2 °F - 40.5 °F 80% 30.11 in - ENE 1.2 mph - N/A   Unknown
5:00 PM 46 °F - 41 °F 76% 30.11 in - ENE 3.5 mph - -  
5:00 PM 45.9 °F 44.6 °F 40.8 °F 83% 30.11 in - ENE 3.5 mph - N/A   Unknown
6:00 PM 45.1 °F - 40.8 °F 85% 30.09 in - SSW 2.3 mph - N/A   Unknown
7:00 PM 44.4 °F - 41.4 °F 89% 30.09 in - SSE 1.2 mph - N/A   Unknown
8:00 PM 43.7 °F - 41.7 °F 93% 30.09 in - Calm Calm - N/A   Unknown
9:00 PM 43.3 °F - 42.1 °F 95% 30.08 in - SE 1.2 mph - N/A   Unknown
10:00 PM 43.3 °F 41.7 °F 42.3 °F 96% 30.07 in - SE 3.5 mph - 0.03 in   Unknown
11:00 PM 44.1 °F 39.5 °F 41.7 °F 91% 30.06 in - NE 8.1 mph - 0.03 in   Unknown